UAL1482 KSEA-KSFO

Flight info

Callsign UAL1482
Flight time 1h 34m
Altitude 37000
Route HAROB6 ERAVE Q1 ETCHY MLBEC BDEGA4
Aircraft A320/M-SDE3FGHIRWY/LB1

Departure

Time 2026-05-06 02:26
Airport Seattle–Tacoma International Airport (KSEA)

Arrival

Time 2026-05-06 04:01
Airport San Francisco International Airport (KSFO)
Time Latitude Longitude Altitude Speed Heading
2026-05-06 02:11 47.44054 -122.30436 386 ft 0 kts 43°
2026-05-06 02:17 47.44052 -122.30438 386 ft 3 kts 43°
2026-05-06 02:17 47.44031 -122.30463 386 ft 4 kts 31°
2026-05-06 02:18 47.44008 -122.30478 385 ft 4 kts 359°
2026-05-06 02:18 47.43992 -122.30471 385 ft 3 kts 274°
2026-05-06 02:18 47.43992 -122.30467 385 ft 0 kts 270°
2026-05-06 02:20 47.43992 -122.30469 385 ft 1 kts 270°
2026-05-06 02:21 47.43992 -122.30498 385 ft 5 kts 270°
2026-05-06 02:21 47.43994 -122.30586 384 ft 10 kts 283°
2026-05-06 02:21 47.44055 -122.30636 385 ft 11 kts 358°
2026-05-06 02:21 47.44134 -122.30636 387 ft 11 kts
2026-05-06 02:22 47.44229 -122.30634 389 ft 17 kts
2026-05-06 02:22 47.44363 -122.30633 394 ft 22 kts
2026-05-06 02:22 47.44532 -122.30632 398 ft 27 kts
2026-05-06 02:22 47.44729 -122.30630 403 ft 29 kts
2026-05-06 02:23 47.44932 -122.30628 409 ft 29 kts
2026-05-06 02:23 47.45130 -122.30626 411 ft 28 kts
2026-05-06 02:23 47.45321 -122.30625 420 ft 27 kts
2026-05-06 02:23 47.45501 -122.30623 424 ft 25 kts 360°
2026-05-06 02:24 47.45677 -122.30621 430 ft 25 kts
2026-05-06 02:24 47.45856 -122.30620 430 ft 26 kts
2026-05-06 02:24 47.46042 -122.30620 436 ft 27 kts 359°
2026-05-06 02:24 47.46216 -122.30618 433 ft 21 kts
2026-05-06 02:25 47.46330 -122.30616 438 ft 11 kts 359°
2026-05-06 02:25 47.46375 -122.30695 442 ft 12 kts 269°
2026-05-06 02:25 47.46310 -122.30773 437 ft 16 kts 186°
2026-05-06 02:25 47.46106 -122.30779 431 ft 58 kts 180°
2026-05-06 02:26 47.45485 -122.30784 422 ft 118 kts 180°
2026-05-06 02:26 47.44501 -122.30793 411 ft 163 kts 181°
2026-05-06 02:26 47.43370 -122.30792 990 ft 162 kts 179°
2026-05-06 02:26 47.42246 -122.30790 1649 ft 161 kts 181°
2026-05-06 02:27 47.41118 -122.30810 2216 ft 165 kts 182°
2026-05-06 02:27 47.39898 -122.30844 2506 ft 186 kts 182°
2026-05-06 02:27 47.38520 -122.30889 2769 ft 211 kts 182°
2026-05-06 02:27 47.36968 -122.30947 3094 ft 235 kts 182°
2026-05-06 02:28 47.35252 -122.31016 3520 ft 258 kts 182°
2026-05-06 02:28 47.33429 -122.31317 4210 ft 269 kts 201°
2026-05-06 02:28 47.31915 -122.32911 4967 ft 274 kts 236°
2026-05-06 02:28 47.31133 -122.35462 5754 ft 275 kts 257°
2026-05-06 02:29 47.30785 -122.38246 6617 ft 278 kts 265°
2026-05-06 02:29 47.30591 -122.41097 7437 ft 281 kts 267°
2026-05-06 02:29 47.30483 -122.43987 8252 ft 284 kts 275°
2026-05-06 02:29 47.30708 -122.46880 9078 ft 286 kts 278°
2026-05-06 02:30 47.30882 -122.49822 9887 ft 290 kts 276°
2026-05-06 02:30 47.30993 -122.52805 10607 ft 294 kts 275°
2026-05-06 02:30 47.31084 -122.55939 10837 ft 318 kts 274°
2026-05-06 02:30 47.31167 -122.59291 11162 ft 334 kts 274°
2026-05-06 02:31 47.31244 -122.62740 11793 ft 339 kts 274°
2026-05-06 02:31 47.31321 -122.66234 12466 ft 343 kts 274°
2026-05-06 02:31 47.31403 -122.69769 13161 ft 347 kts 274°
2026-05-06 02:31 47.31492 -122.73332 13845 ft 350 kts 274°
2026-05-06 02:32 47.31339 -122.76937 14431 ft 357 kts 263°
2026-05-06 02:32 47.30664 -122.80483 15033 ft 363 kts 251°
2026-05-06 02:32 47.29729 -122.83954 15612 ft 366 kts 251°
2026-05-06 02:32 47.29109 -122.86270 16002 ft 368 kts 251°
2026-05-06 02:33 47.27850 -122.90980 16786 ft 372 kts 251°
2026-05-06 02:33 47.27530 -122.92178 16979 ft 373 kts 251°
2026-05-06 02:34 47.23774 -123.03853 18857 ft 389 kts 233°
2026-05-06 02:34 47.21902 -123.06699 19384 ft 395 kts 222°
2026-05-06 02:34 47.19666 -123.09180 19938 ft 400 kts 218°
2026-05-06 02:34 47.17413 -123.11615 20472 ft 403 kts 218°
2026-05-06 02:35 47.15151 -123.14065 21007 ft 406 kts 218°
2026-05-06 02:35 47.12873 -123.16538 21563 ft 408 kts 218°
2026-05-06 02:35 47.10585 -123.19020 22108 ft 411 kts 218°
2026-05-06 02:35 47.08276 -123.21521 22624 ft 414 kts 218°
2026-05-06 02:36 47.05949 -123.24039 23135 ft 417 kts 218°
2026-05-06 02:36 47.03605 -123.26570 23622 ft 421 kts 218°
2026-05-06 02:36 47.01238 -123.29124 24026 ft 423 kts 218°
2026-05-06 02:36 46.98856 -123.31686 24436 ft 426 kts 218°
2026-05-06 02:37 46.96457 -123.34263 24834 ft 429 kts 219°
2026-05-06 02:37 46.93980 -123.36728 25209 ft 434 kts 211°
2026-05-06 02:37 46.91224 -123.38584 25599 ft 439 kts 200°
2026-05-06 02:37 46.88255 -123.39692 25983 ft 443 kts 189°
2026-05-06 02:38 46.85168 -123.39987 26343 ft 447 kts 179°
2026-05-06 02:38 46.82048 -123.39867 26697 ft 450 kts 179°
2026-05-06 02:38 46.78914 -123.39758 27056 ft 452 kts 179°
2026-05-06 02:38 46.75754 -123.39661 27410 ft 455 kts 179°
2026-05-06 02:39 46.72581 -123.39570 27761 ft 458 kts 179°
2026-05-06 02:39 46.69381 -123.39476 28112 ft 461 kts 179°
2026-05-06 02:39 46.66170 -123.39380 28438 ft 464 kts 179°
2026-05-06 02:39 46.62929 -123.39279 28770 ft 467 kts 179°
2026-05-06 02:40 46.59677 -123.39177 29130 ft 469 kts 179°
2026-05-06 02:40 46.56411 -123.39074 29488 ft 471 kts 179°
2026-05-06 02:40 46.53122 -123.38972 29827 ft 474 kts 179°
2026-05-06 02:40 46.49819 -123.38867 30153 ft 476 kts 179°
2026-05-06 02:41 46.46497 -123.38761 30438 ft 479 kts 179°
2026-05-06 02:41 46.43160 -123.38655 30720 ft 481 kts 179°
2026-05-06 02:41 46.39815 -123.38548 31112 ft 480 kts 179°
2026-05-06 02:41 46.36478 -123.38441 31517 ft 479 kts 179°
2026-05-06 02:42 46.33148 -123.38335 31914 ft 478 kts 179°
2026-05-06 02:42 46.29820 -123.38231 32305 ft 478 kts 179°
2026-05-06 02:42 46.26500 -123.38133 32711 ft 477 kts 179°
2026-05-06 02:42 46.23181 -123.38032 33116 ft 476 kts 179°
2026-05-06 02:43 46.19870 -123.37929 33503 ft 476 kts 179°
2026-05-06 02:43 46.16559 -123.37830 33853 ft 477 kts 179°
2026-05-06 02:43 46.13238 -123.37734 34216 ft 477 kts 179°
2026-05-06 02:43 46.09926 -123.37638 34554 ft 476 kts 179°
2026-05-06 02:44 46.06607 -123.37538 34893 ft 476 kts 179°
2026-05-06 02:44 46.03304 -123.37438 35205 ft 475 kts 179°
2026-05-06 02:44 46.00004 -123.37337 35521 ft 474 kts 179°
2026-05-06 02:44 45.96703 -123.37233 35835 ft 473 kts 179°
2026-05-06 02:45 45.93414 -123.37130 36138 ft 473 kts 179°
2026-05-06 02:45 45.90130 -123.37028 36432 ft 472 kts 179°
2026-05-06 02:45 45.86846 -123.36928 36736 ft 470 kts 180°
2026-05-06 02:45 45.83579 -123.36832 37010 ft 469 kts 180°
2026-05-06 02:46 45.80316 -123.36738 37076 ft 470 kts 180°
2026-05-06 02:46 45.73768 -123.36543 37070 ft 471 kts 179°
2026-05-06 02:47 45.67195 -123.36330 37069 ft 473 kts 179°
2026-05-06 02:47 45.60603 -123.36133 37061 ft 474 kts 179°
2026-05-06 02:48 45.54011 -123.35948 37064 ft 474 kts 179°
2026-05-06 02:48 45.47416 -123.35758 37052 ft 474 kts 179°
2026-05-06 02:49 45.40825 -123.35552 37065 ft 474 kts 179°
2026-05-06 02:49 45.34227 -123.35346 37066 ft 474 kts 179°
2026-05-06 02:50 45.27634 -123.35149 37078 ft 474 kts 179°
2026-05-06 02:50 45.21036 -123.34952 37061 ft 475 kts 179°
2026-05-06 02:51 45.14431 -123.34761 37041 ft 475 kts 179°
2026-05-06 02:51 45.07823 -123.34580 37060 ft 475 kts 179°
2026-05-06 02:52 45.01220 -123.34388 37070 ft 475 kts 179°
2026-05-06 02:52 44.94607 -123.34185 37067 ft 475 kts 179°
2026-05-06 02:53 44.87998 -123.33982 37064 ft 475 kts 179°
2026-05-06 02:53 44.81377 -123.33792 37076 ft 476 kts 179°
2026-05-06 02:54 44.74755 -123.33607 37067 ft 476 kts 179°
2026-05-06 02:54 44.68134 -123.33403 37080 ft 476 kts 179°
2026-05-06 02:55 44.61518 -123.33207 37090 ft 476 kts 179°
2026-05-06 02:55 44.54890 -123.33022 37082 ft 476 kts 179°
2026-05-06 02:56 44.48262 -123.32830 37076 ft 477 kts 178°
2026-05-06 02:56 44.41631 -123.32575 37072 ft 476 kts 178°
2026-05-06 02:57 44.35007 -123.32276 37088 ft 476 kts 178°
2026-05-06 02:57 44.28378 -123.31996 37078 ft 477 kts 178°
2026-05-06 02:58 44.21751 -123.31734 37074 ft 477 kts 178°
2026-05-06 02:58 44.15120 -123.31482 37081 ft 477 kts 178°
2026-05-06 02:59 44.08484 -123.31223 37060 ft 477 kts 178°
2026-05-06 02:59 44.01842 -123.30956 37072 ft 477 kts 178°
2026-05-06 03:00 43.95206 -123.30693 37088 ft 477 kts 178°
2026-05-06 03:00 43.88569 -123.30429 37077 ft 477 kts 178°
2026-05-06 03:01 43.81930 -123.30170 37073 ft 478 kts 178°
2026-05-06 03:01 43.75285 -123.29908 37056 ft 478 kts 178°
2026-05-06 03:02 43.68642 -123.29647 37063 ft 477 kts 178°
2026-05-06 03:02 43.62000 -123.29380 37075 ft 477 kts 178°
2026-05-06 03:03 43.55370 -123.29125 37063 ft 476 kts 178°
2026-05-06 03:03 43.48742 -123.28870 37063 ft 476 kts 178°
2026-05-06 03:04 43.42109 -123.28606 37052 ft 477 kts 178°
2026-05-06 03:04 43.35478 -123.28345 37050 ft 477 kts 178°
2026-05-06 03:05 43.28857 -123.28086 37058 ft 476 kts 177°
2026-05-06 03:05 43.22227 -123.27833 37053 ft 476 kts 177°
2026-05-06 03:06 43.15602 -123.27583 37052 ft 476 kts 177°
2026-05-06 03:06 43.08981 -123.27319 37062 ft 476 kts 177°
2026-05-06 03:07 43.02358 -123.27059 37046 ft 476 kts 177°
2026-05-06 03:07 42.95734 -123.26818 37040 ft 476 kts 177°
2026-05-06 03:08 42.89112 -123.26574 37049 ft 476 kts 177°
2026-05-06 03:08 42.82448 -123.26313 37028 ft 476 kts 177°
2026-05-06 03:09 42.76941 -123.26090 37028 ft 476 kts 177°
2026-05-06 03:09 42.70311 -123.25842 37024 ft 477 kts 177°
2026-05-06 03:10 42.62592 -123.25556 37031 ft 477 kts 177°
2026-05-06 03:10 42.57031 -123.25348 37015 ft 477 kts 177°
2026-05-06 03:11 42.50389 -123.25089 37003 ft 478 kts 177°
2026-05-06 03:11 42.43738 -123.24844 37010 ft 478 kts 177°
2026-05-06 03:12 42.37097 -123.24603 36998 ft 477 kts 177°
2026-05-06 03:12 42.30461 -123.24357 37003 ft 477 kts 177°
2026-05-06 03:13 42.23812 -123.24110 37022 ft 478 kts 177°
2026-05-06 03:13 42.17164 -123.23864 37016 ft 478 kts 177°
2026-05-06 03:14 42.10513 -123.23624 37017 ft 478 kts 177°
2026-05-06 03:14 42.03872 -123.23384 37019 ft 477 kts 177°
2026-05-06 03:15 41.97225 -123.23141 37025 ft 477 kts 177°
2026-05-06 03:15 41.90594 -123.22891 37026 ft 477 kts 177°
2026-05-06 03:16 41.83969 -123.22648 37045 ft 477 kts 177°
2026-05-06 03:16 41.77338 -123.22410 37030 ft 477 kts 177°
2026-05-06 03:17 41.70710 -123.22178 37037 ft 476 kts 177°
2026-05-06 03:17 41.64085 -123.21947 37049 ft 476 kts 177°
2026-05-06 03:18 41.57468 -123.21704 37048 ft 476 kts 177°
2026-05-06 03:18 41.50851 -123.21475 37057 ft 476 kts 177°
2026-05-06 03:19 41.44238 -123.21244 37048 ft 476 kts 177°
2026-05-06 03:19 41.37620 -123.20968 37065 ft 475 kts 175°
2026-05-06 03:20 41.27763 -123.19931 37063 ft 474 kts 173°
2026-05-06 03:20 41.21194 -123.19144 37080 ft 474 kts 173°
2026-05-06 03:21 41.14615 -123.18447 37074 ft 475 kts 174°
2026-05-06 03:21 41.08024 -123.17794 37078 ft 475 kts 174°
2026-05-06 03:22 41.01438 -123.17130 37078 ft 475 kts 174°
2026-05-06 03:22 40.94849 -123.16449 37063 ft 475 kts 173°
2026-05-06 03:23 40.88257 -123.15774 37064 ft 475 kts 173°
2026-05-06 03:23 40.81667 -123.15101 37046 ft 475 kts 173°
2026-05-06 03:24 40.75083 -123.14453 37036 ft 475 kts 174°
2026-05-06 03:24 40.68491 -123.13794 37058 ft 475 kts 173°
2026-05-06 03:25 40.61901 -123.13124 37041 ft 475 kts 173°
2026-05-06 03:25 40.55314 -123.12437 37053 ft 475 kts 173°
2026-05-06 03:26 40.48725 -123.11763 37062 ft 475 kts 173°
2026-05-06 03:26 40.42132 -123.11114 37050 ft 475 kts 173°
2026-05-06 03:27 40.35543 -123.10456 37055 ft 475 kts 173°
2026-05-06 03:27 40.28957 -123.09793 37060 ft 475 kts 173°
2026-05-06 03:28 40.22364 -123.09135 37059 ft 475 kts 173°
2026-05-06 03:28 40.15775 -123.08474 37041 ft 475 kts 173°
2026-05-06 03:29 40.09187 -123.07804 37057 ft 475 kts 173°
2026-05-06 03:29 40.02590 -123.07147 37047 ft 475 kts 173°
2026-05-06 03:30 39.95993 -123.06514 37063 ft 475 kts 173°
2026-05-06 03:30 39.89394 -123.05870 37054 ft 476 kts 173°
2026-05-06 03:31 39.82793 -123.05209 37055 ft 476 kts 173°
2026-05-06 03:31 39.76189 -123.04551 37052 ft 476 kts 173°
2026-05-06 03:32 39.69543 -123.03893 37050 ft 476 kts 173°
2026-05-06 03:32 39.62946 -123.03245 37049 ft 476 kts 173°
2026-05-06 03:33 39.56344 -123.02605 37048 ft 475 kts 173°
2026-05-06 03:33 39.49745 -123.01960 37048 ft 476 kts 173°
2026-05-06 03:34 39.43144 -123.01310 37041 ft 476 kts 173°
2026-05-06 03:34 39.36533 -123.00662 37058 ft 476 kts 173°
2026-05-06 03:35 39.29924 -123.00024 37063 ft 476 kts 173°
2026-05-06 03:35 39.23314 -122.99385 37070 ft 476 kts 173°
2026-05-06 03:36 39.16703 -122.98739 37004 ft 478 kts 172°
2026-05-06 03:36 39.13388 -122.98416 36738 ft 477 kts 173°
2026-05-06 03:36 39.10081 -122.98095 36480 ft 477 kts 173°
2026-05-06 03:37 39.06772 -122.97774 36222 ft 477 kts 173°
2026-05-06 03:37 39.03460 -122.97450 35976 ft 477 kts 173°
2026-05-06 03:37 39.00151 -122.97126 35635 ft 477 kts 173°
2026-05-06 03:37 38.96822 -122.96805 34759 ft 484 kts 173°
2026-05-06 03:38 38.93448 -122.96484 33861 ft 489 kts 173°
2026-05-06 03:38 38.90036 -122.96158 32815 ft 494 kts 173°
2026-05-06 03:38 38.86647 -122.95632 32333 ft 484 kts 166°
2026-05-06 03:38 38.83379 -122.94701 31775 ft 479 kts 164°
2026-05-06 03:39 38.80145 -122.93743 31208 ft 475 kts 164°
2026-05-06 03:39 38.76934 -122.92786 30641 ft 472 kts 164°
2026-05-06 03:39 38.73747 -122.91838 30087 ft 469 kts 164°
2026-05-06 03:39 38.70580 -122.90899 29486 ft 465 kts 164°
2026-05-06 03:40 38.67444 -122.89974 28944 ft 460 kts 165°
2026-05-06 03:40 38.64334 -122.89056 28402 ft 456 kts 164°
2026-05-06 03:40 38.61258 -122.88150 27862 ft 453 kts 164°
2026-05-06 03:40 38.58196 -122.87252 27307 ft 450 kts 164°
2026-05-06 03:41 38.55154 -122.86357 26757 ft 447 kts 164°
2026-05-06 03:41 38.52131 -122.85466 26208 ft 445 kts 164°
2026-05-06 03:41 38.49126 -122.84580 25674 ft 443 kts 164°
2026-05-06 03:41 38.46127 -122.83697 25122 ft 441 kts 164°
2026-05-06 03:42 38.43142 -122.82818 24575 ft 440 kts 164°
2026-05-06 03:42 38.40170 -122.81942 24137 ft 436 kts 164°
2026-05-06 03:42 38.37208 -122.81070 23665 ft 435 kts 164°
2026-05-06 03:42 38.34275 -122.80211 23212 ft 431 kts 164°
2026-05-06 03:43 38.31363 -122.79358 22741 ft 428 kts 164°
2026-05-06 03:43 38.28474 -122.78508 22305 ft 424 kts 164°
2026-05-06 03:43 38.25614 -122.77669 21879 ft 421 kts 164°
2026-05-06 03:43 38.22773 -122.76841 21456 ft 417 kts 164°
2026-05-06 03:44 38.19949 -122.76020 21027 ft 414 kts 165°
2026-05-06 03:44 38.17159 -122.75209 20596 ft 410 kts 165°
2026-05-06 03:44 38.14393 -122.74409 20053 ft 403 kts 165°
2026-05-06 03:44 38.11676 -122.73625 19227 ft 398 kts 165°
2026-05-06 03:45 38.09000 -122.72852 18423 ft 392 kts 165°
2026-05-06 03:45 38.06356 -122.72087 17741 ft 388 kts 165°
2026-05-06 03:45 38.03741 -122.71331 17284 ft 384 kts 165°
2026-05-06 03:45 38.01147 -122.70579 16808 ft 380 kts 165°
2026-05-06 03:46 37.98577 -122.69833 16344 ft 377 kts 165°
2026-05-06 03:46 37.96854 -122.69335 16025 ft 375 kts 165°
2026-05-06 03:46 37.93501 -122.68366 15415 ft 371 kts 165°
2026-05-06 03:46 37.91824 -122.67807 15110 ft 367 kts 159°
2026-05-06 03:47 37.88813 -122.65982 14522 ft 359 kts 143°
2026-05-06 03:47 37.87472 -122.64717 14228 ft 355 kts 136°
2026-05-06 03:47 37.85598 -122.62711 13769 ft 352 kts 136°
2026-05-06 03:47 37.83730 -122.60724 13326 ft 349 kts 136°
2026-05-06 03:48 37.81872 -122.58758 12870 ft 346 kts 137°
2026-05-06 03:48 37.80011 -122.56785 12144 ft 352 kts 137°
2026-05-06 03:48 37.78157 -122.54828 11921 ft 340 kts 137°
2026-05-06 03:48 37.76397 -122.52974 11754 ft 318 kts 137°
2026-05-06 03:49 37.74729 -122.51219 11278 ft 308 kts 137°
2026-05-06 03:49 37.73120 -122.49522 11041 ft 298 kts 137°
2026-05-06 03:49 37.71518 -122.47824 11004 ft 301 kts 136°
2026-05-06 03:49 37.69917 -122.46117 11008 ft 301 kts 136°
2026-05-06 03:50 37.68318 -122.44412 11006 ft 301 kts 137°
2026-05-06 03:50 37.66719 -122.42709 11008 ft 301 kts 136°
2026-05-06 03:50 37.65117 -122.41003 11009 ft 301 kts 137°
2026-05-06 03:50 37.63520 -122.39302 11012 ft 301 kts 136°
2026-05-06 03:51 37.61911 -122.37601 11013 ft 302 kts 139°
2026-05-06 03:51 37.60040 -122.36193 10880 ft 322 kts 151°
2026-05-06 03:51 37.57987 -122.34970 10451 ft 324 kts 153°
2026-05-06 03:51 37.55976 -122.33809 10334 ft 313 kts 153°
2026-05-06 03:52 37.54021 -122.32697 10214 ft 304 kts 153°
2026-05-06 03:52 37.52108 -122.31613 9932 ft 300 kts 153°
2026-05-06 03:52 37.50208 -122.30536 9611 ft 298 kts 153°
2026-05-06 03:52 37.48329 -122.29442 9268 ft 296 kts 148°
2026-05-06 03:53 37.46817 -122.27793 9020 ft 283 kts 121°
2026-05-06 03:53 37.45861 -122.25688 8891 ft 272 kts 113°
2026-05-06 03:53 37.45039 -122.23637 8755 ft 254 kts 113°
2026-05-06 03:53 37.44270 -122.21705 8516 ft 242 kts 112°
2026-05-06 03:54 37.43524 -122.19829 8061 ft 238 kts 112°
2026-05-06 03:54 37.42791 -122.17969 7582 ft 237 kts 113°
2026-05-06 03:54 37.42279 -122.16042 7090 ft 229 kts 88°
2026-05-06 03:54 37.42613 -122.14153 6594 ft 221 kts 56°
2026-05-06 03:55 37.43573 -122.12655 6022 ft 220 kts 44°
2026-05-06 03:55 37.44666 -122.11304 5490 ft 220 kts 37°
2026-05-06 03:55 37.46044 -122.10583 5012 ft 216 kts
2026-05-06 03:55 37.47496 -122.11010 4621 ft 217 kts 330°
2026-05-06 03:56 37.48758 -122.12060 4249 ft 219 kts 323°
2026-05-06 03:56 37.49987 -122.13193 3950 ft 218 kts 322°
2026-05-06 03:56 37.51211 -122.14312 3675 ft 217 kts 322°
2026-05-06 03:56 37.52413 -122.15444 3437 ft 213 kts 314°
2026-05-06 03:57 37.53226 -122.16939 3233 ft 205 kts 296°
2026-05-06 03:57 37.53875 -122.18495 2977 ft 195 kts 296°
2026-05-06 03:57 37.54493 -122.19970 2788 ft 186 kts 296°
2026-05-06 03:57 37.55094 -122.21396 2521 ft 183 kts 296°
2026-05-06 03:58 37.55683 -122.22794 2268 ft 179 kts 296°
2026-05-06 03:58 37.56261 -122.24166 2046 ft 176 kts 296°
2026-05-06 03:58 37.56832 -122.25520 1820 ft 173 kts 296°
2026-05-06 03:58 37.57376 -122.26809 1593 ft 160 kts 295°
2026-05-06 03:59 37.57868 -122.27975 1409 ft 143 kts 295°
2026-05-06 03:59 37.58319 -122.29048 1198 ft 135 kts 296°
2026-05-06 03:59 37.58754 -122.30083 1026 ft 133 kts 296°
2026-05-06 03:59 37.59187 -122.31112 846 ft 133 kts 296°
2026-05-06 04:00 37.59616 -122.32132 687 ft 131 kts 296°
2026-05-06 04:00 37.60039 -122.33145 540 ft 130 kts 296°
2026-05-06 04:00 37.60457 -122.34149 369 ft 129 kts 295°
2026-05-06 04:00 37.60880 -122.35148 210 ft 129 kts 295°
2026-05-06 04:01 37.61304 -122.36156 33 ft 130 kts 296°
2026-05-06 04:01 37.61664 -122.37013 23 ft 88 kts 298°
2026-05-06 04:01 37.61872 -122.37507 22 ft 46 kts 298°
2026-05-06 04:01 37.61971 -122.37747 24 ft 24 kts 297°
2026-05-06 04:02 37.61988 -122.37861 22 ft 14 kts 262°
2026-05-06 04:02 37.61955 -122.37970 22 ft 12 kts 262°
2026-05-06 04:02 37.61987 -122.38078 22 ft 15 kts 298°
2026-05-06 04:02 37.62039 -122.38202 22 ft 17 kts 298°
2026-05-06 04:03 37.62060 -122.38252 22 ft 0 kts 298°
2026-05-06 04:03 37.62061 -122.38255 22 ft 2 kts 298°
2026-05-06 04:04 37.62071 -122.38278 24 ft 5 kts 298°
2026-05-06 04:04 37.62091 -122.38326 22 ft 8 kts 298°
2026-05-06 04:04 37.62080 -122.38394 24 ft 11 kts 222°
2026-05-06 04:04 37.62061 -122.38494 22 ft 13 kts 233°
2026-05-06 04:05 37.62024 -122.38524 22 ft 0 kts 207°
2026-05-06 04:05 37.62023 -122.38524 22 ft 2 kts 207°
2026-05-06 04:06 37.61997 -122.38541 22 ft 6 kts 207°
2026-05-06 04:06 37.61998 -122.38590 24 ft 8 kts 298°
2026-05-06 04:06 37.62023 -122.38655 22 ft 4 kts 288°
2026-05-06 04:06 37.62027 -122.38671 22 ft 1 kts 289°
2026-05-06 04:07 37.62028 -122.38672 22 ft 0 kts 289°